WZZ77K LATI-DTTA

Flight info

Callsign WZZ77K
Flight time 1h 31m
Altitude 34000
Route DIRES DCT PAPIZ DCT KAPPO DCT SIRGI/N0456F350 DCT EVINO DCT NERAR DCT LURON DCT KAPIL DCT SUSIP UB979 ICANI
Aircraft A321/M-SDE3FGHIRWY/LB1

Departure

Time 2026-05-08 13:55
Airport Tirana International Airport Mother Teresa (LATI)

Arrival

Time 2026-05-08 15:27
Airport Tunis Carthage International Airport (DTTA)
Time Latitude Longitude Altitude Speed Heading
2026-05-08 13:29 41.42107 19.71500 118 ft 0 kts 265°
2026-05-08 13:42 41.42107 19.71503 118 ft 2 kts 264°
2026-05-08 13:43 41.42113 19.71533 115 ft 4 kts 232°
2026-05-08 13:43 41.42132 19.71550 115 ft 4 kts 184°
2026-05-08 13:43 41.42141 19.71551 114 ft 0 kts 177°
2026-05-08 13:46 41.42135 19.71551 115 ft 2 kts 177°
2026-05-08 13:46 41.42108 19.71554 116 ft 6 kts 173°
2026-05-08 13:46 41.42047 19.71566 117 ft 11 kts 172°
2026-05-08 13:47 41.41952 19.71581 117 ft 16 kts 174°
2026-05-08 13:47 41.41831 19.71596 117 ft 18 kts 175°
2026-05-08 13:47 41.41708 19.71613 118 ft 19 kts 174°
2026-05-08 13:47 41.41575 19.71631 120 ft 19 kts 174°
2026-05-08 13:48 41.41445 19.71647 119 ft 19 kts 175°
2026-05-08 13:48 41.41319 19.71666 121 ft 18 kts 174°
2026-05-08 13:48 41.41195 19.71681 121 ft 18 kts 174°
2026-05-08 13:48 41.41074 19.71696 124 ft 17 kts 174°
2026-05-08 13:49 41.40960 19.71715 123 ft 16 kts 170°
2026-05-08 13:49 41.40854 19.71740 125 ft 15 kts 170°
2026-05-08 13:49 41.40749 19.71760 122 ft 15 kts 173°
2026-05-08 13:49 41.40648 19.71775 126 ft 15 kts 175°
2026-05-08 13:50 41.40541 19.71787 128 ft 16 kts 175°
2026-05-08 13:50 41.40432 19.71803 125 ft 16 kts 166°
2026-05-08 13:50 41.40339 19.71875 128 ft 16 kts 143°
2026-05-08 13:50 41.40252 19.71965 130 ft 15 kts 127°
2026-05-08 13:51 41.40244 19.72089 130 ft 7 kts 85°
2026-05-08 13:51 41.40244 19.72096 130 ft 0 kts 85°
2026-05-08 13:53 41.40244 19.72097 130 ft 0 kts 85°
2026-05-08 13:53 41.40246 19.72115 130 ft 2 kts 85°
2026-05-08 13:53 41.40249 19.72161 126 ft 7 kts 82°
2026-05-08 13:53 41.40259 19.72201 128 ft 6 kts 62°
2026-05-08 13:54 41.40281 19.72217 127 ft 2 kts
2026-05-08 13:54 41.40283 19.72215 128 ft 0 kts 355°
2026-05-08 13:54 41.40296 19.72214 129 ft 17 kts 354°
2026-05-08 13:54 41.40677 19.72165 127 ft 89 kts 354°
2026-05-08 13:55 41.41508 19.72055 121 ft 148 kts 354°
2026-05-08 13:55 41.42658 19.71904 423 ft 172 kts 354°
2026-05-08 13:55 41.45011 19.71592 1757 ft 178 kts 357°
2026-05-08 13:56 41.46319 19.71421 1938 ft 199 kts 357°
2026-05-08 13:56 41.47764 19.71233 2077 ft 220 kts 358°
2026-05-08 13:56 41.49376 19.71021 2209 ft 246 kts 356°
2026-05-08 13:56 41.51110 19.70796 2651 ft 260 kts 356°
2026-05-08 13:57 41.52929 19.70553 3325 ft 265 kts 356°
2026-05-08 13:57 41.54762 19.70303 4051 ft 268 kts 356°
2026-05-08 13:57 41.56645 19.70049 4761 ft 273 kts 356°
2026-05-08 13:57 41.58511 19.69487 5384 ft 279 kts 335°
2026-05-08 13:58 41.60068 19.67944 6036 ft 282 kts 308°
2026-05-08 13:58 41.60983 19.65660 6706 ft 280 kts 282°
2026-05-08 13:58 41.61081 19.63097 7377 ft 277 kts 257°
2026-05-08 13:58 41.60393 19.60738 8050 ft 274 kts 233°
2026-05-08 13:59 41.59043 19.58967 8739 ft 272 kts 213°
2026-05-08 13:59 41.57480 19.57542 9474 ft 273 kts 213°
2026-05-08 13:59 41.55910 19.56105 10162 ft 274 kts 213°
2026-05-08 13:59 41.54279 19.54605 10321 ft 295 kts 214°
2026-05-08 14:00 41.52534 19.52993 10473 ft 315 kts 214°
2026-05-08 14:00 41.50701 19.51294 10923 ft 322 kts 214°
2026-05-08 14:00 41.48853 19.49583 11529 ft 324 kts 214°
2026-05-08 14:00 41.47019 19.47887 12171 ft 325 kts 214°
2026-05-08 14:01 41.45150 19.46164 12770 ft 327 kts 214°
2026-05-08 14:01 41.43264 19.44430 13255 ft 334 kts 214°
2026-05-08 14:01 41.41341 19.42661 13752 ft 338 kts 215°
2026-05-08 14:01 41.39393 19.40872 14257 ft 341 kts 215°
2026-05-08 14:02 41.37425 19.39073 14752 ft 345 kts 215°
2026-05-08 14:02 41.35428 19.37249 15255 ft 349 kts 215°
2026-05-08 14:02 41.33412 19.35401 15743 ft 353 kts 216°
2026-05-08 14:02 41.31375 19.33530 16244 ft 357 kts 216°
2026-05-08 14:03 41.29322 19.31646 16742 ft 361 kts 216°
2026-05-08 14:03 41.27247 19.29743 17245 ft 364 kts 216°
2026-05-08 14:03 41.25174 19.27846 17734 ft 367 kts 216°
2026-05-08 14:03 41.23063 19.25920 18210 ft 371 kts 216°
2026-05-08 14:04 41.20921 19.23963 18619 ft 374 kts 216°
2026-05-08 14:04 41.18769 19.21996 19013 ft 377 kts 216°
2026-05-08 14:04 41.16595 19.20009 19451 ft 380 kts 216°
2026-05-08 14:04 41.14406 19.18013 19864 ft 382 kts 216°
2026-05-08 14:05 41.12202 19.16010 20296 ft 386 kts 216°
2026-05-08 14:05 41.09975 19.13991 20729 ft 388 kts 216°
2026-05-08 14:05 41.07737 19.11962 21150 ft 391 kts 216°
2026-05-08 14:05 41.05484 19.09915 21531 ft 395 kts 216°
2026-05-08 14:06 41.03203 19.07846 21901 ft 398 kts 216°
2026-05-08 14:06 41.00909 19.05768 22266 ft 401 kts 217°
2026-05-08 14:06 40.98598 19.03680 22653 ft 403 kts 217°
2026-05-08 14:06 40.96274 19.01580 23046 ft 406 kts 217°
2026-05-08 14:07 40.93933 18.99466 23387 ft 409 kts 216°
2026-05-08 14:07 40.91658 18.97221 23682 ft 410 kts 224°
2026-05-08 14:07 40.89723 18.94518 23984 ft 409 kts 234°
2026-05-08 14:07 40.88173 18.91377 24291 ft 409 kts 244°
2026-05-08 14:08 40.87052 18.87925 24574 ft 410 kts 250°
2026-05-08 14:08 40.86032 18.84394 24877 ft 412 kts 250°
2026-05-08 14:08 40.85006 18.80858 25213 ft 413 kts 250°
2026-05-08 14:08 40.83984 18.77355 25509 ft 414 kts 250°
2026-05-08 14:09 40.82931 18.73756 25863 ft 416 kts 250°
2026-05-08 14:09 40.81889 18.70200 26181 ft 417 kts 250°
2026-05-08 14:09 40.80840 18.66636 26587 ft 416 kts 250°
2026-05-08 14:09 40.79783 18.63062 26840 ft 420 kts 249°
2026-05-08 14:10 40.78716 18.59450 27069 ft 423 kts 250°
2026-05-08 14:10 40.77648 18.55830 27427 ft 423 kts 250°
2026-05-08 14:10 40.76580 18.52209 27731 ft 425 kts 249°
2026-05-08 14:10 40.75504 18.48567 27951 ft 428 kts 249°
2026-05-08 14:11 40.74419 18.44902 28261 ft 430 kts 249°
2026-05-08 14:11 40.73331 18.41232 28655 ft 429 kts 249°
2026-05-08 14:11 40.72242 18.37558 28917 ft 432 kts 249°
2026-05-08 14:11 40.71142 18.33861 29141 ft 434 kts 249°
2026-05-08 14:12 40.70035 18.30148 29426 ft 436 kts 249°
2026-05-08 14:12 40.68924 18.26421 29709 ft 438 kts 249°
2026-05-08 14:12 40.67809 18.22675 29999 ft 440 kts 249°
2026-05-08 14:12 40.66690 18.18922 30283 ft 440 kts 249°
2026-05-08 14:13 40.65571 18.15185 30629 ft 438 kts 249°
2026-05-08 14:13 40.64447 18.11448 30980 ft 437 kts 249°
2026-05-08 14:13 40.63328 18.07736 31331 ft 436 kts 249°
2026-05-08 14:13 40.62226 18.04088 31675 ft 434 kts 249°
2026-05-08 14:14 40.61111 18.00402 32016 ft 433 kts 249°
2026-05-08 14:14 40.59914 17.96712 32363 ft 432 kts 247°
2026-05-08 14:14 40.58669 17.93184 32687 ft 431 kts 246°
2026-05-08 14:14 40.57353 17.89641 33009 ft 429 kts 246°
2026-05-08 14:15 40.56030 17.86147 33475 ft 424 kts 246°
2026-05-08 14:15 40.54721 17.82684 33858 ft 422 kts 246°
2026-05-08 14:15 40.53435 17.79232 33925 ft 418 kts 247°
2026-05-08 14:16 40.50929 17.72399 33929 ft 413 kts 247°
2026-05-08 14:16 40.48459 17.65600 33925 ft 411 kts 247°
2026-05-08 14:17 40.45994 17.58835 33925 ft 411 kts 247°
2026-05-08 14:17 40.43510 17.52074 33922 ft 411 kts 247°
2026-05-08 14:18 40.41045 17.45373 33944 ft 409 kts 249°
2026-05-08 14:18 40.38582 17.38678 33957 ft 406 kts 249°
2026-05-08 14:19 40.36122 17.32047 33963 ft 403 kts 249°
2026-05-08 14:19 40.33690 17.25492 33963 ft 402 kts 249°
2026-05-08 14:20 40.31249 17.18911 33956 ft 400 kts 249°
2026-05-08 14:20 40.28814 17.12357 33958 ft 400 kts 249°
2026-05-08 14:21 40.26370 17.05822 33944 ft 398 kts 250°
2026-05-08 14:21 40.23940 16.99324 33968 ft 396 kts 250°
2026-05-08 14:22 40.21537 16.92898 33975 ft 395 kts 250°
2026-05-08 14:22 40.19120 16.86461 34018 ft 394 kts 250°
2026-05-08 14:23 40.16702 16.80045 34021 ft 393 kts 250°
2026-05-08 14:23 40.14282 16.73627 34018 ft 393 kts 250°
2026-05-08 14:24 40.12098 16.67128 33981 ft 389 kts 255°
2026-05-08 14:24 40.10157 16.60536 33986 ft 388 kts 255°
2026-05-08 14:25 40.08223 16.53993 33978 ft 387 kts 255°
2026-05-08 14:25 40.06275 16.47429 33969 ft 387 kts 255°
2026-05-08 14:26 40.04325 16.40874 33965 ft 387 kts 255°
2026-05-08 14:26 40.02376 16.34306 33972 ft 387 kts 254°
2026-05-08 14:27 40.00418 16.27751 33983 ft 387 kts 254°
2026-05-08 14:27 39.98461 16.21240 33990 ft 388 kts 254°
2026-05-08 14:28 39.96495 16.14693 33975 ft 388 kts 254°
2026-05-08 14:28 39.94521 16.08138 33995 ft 388 kts 254°
2026-05-08 14:29 39.92544 16.01579 34002 ft 388 kts 254°
2026-05-08 14:29 39.90597 15.95138 33997 ft 388 kts 253°
2026-05-08 14:30 39.88614 15.88591 34015 ft 389 kts 254°
2026-05-08 14:30 39.86636 15.82077 34012 ft 389 kts 253°
2026-05-08 14:31 39.84646 15.75537 34007 ft 388 kts 253°
2026-05-08 14:31 39.82658 15.69014 33993 ft 388 kts 253°
2026-05-08 14:32 39.79653 15.59232 34002 ft 388 kts 253°
2026-05-08 14:32 39.77654 15.52713 34006 ft 388 kts 253°
2026-05-08 14:33 39.75648 15.46198 34006 ft 388 kts 253°
2026-05-08 14:33 39.73635 15.39682 34008 ft 388 kts 253°
2026-05-08 14:34 39.71623 15.33175 33998 ft 388 kts 253°
2026-05-08 14:34 39.69393 15.26758 33989 ft 391 kts 249°
2026-05-08 14:35 39.66921 15.20472 33987 ft 391 kts 248°
2026-05-08 14:35 39.64460 15.14231 33991 ft 390 kts 249°
2026-05-08 14:36 39.62034 15.07940 33993 ft 390 kts 249°
2026-05-08 14:36 39.59590 15.01542 33972 ft 402 kts 249°
2026-05-08 14:37 39.57070 14.94980 33970 ft 411 kts 249°
2026-05-08 14:37 39.54492 14.88319 33967 ft 414 kts 249°
2026-05-08 14:38 39.52339 14.82776 33972 ft 414 kts 249°
2026-05-08 14:38 39.49750 14.76119 33966 ft 413 kts 249°
2026-05-08 14:39 39.47171 14.69464 33970 ft 413 kts 249°
2026-05-08 14:39 39.44578 14.62814 33973 ft 414 kts 249°
2026-05-08 14:40 39.41984 14.56168 33976 ft 414 kts 249°
2026-05-08 14:40 39.39404 14.49561 33980 ft 414 kts 249°
2026-05-08 14:41 39.36808 14.42923 33963 ft 413 kts 248°
2026-05-08 14:41 39.34207 14.36305 33961 ft 413 kts 248°
2026-05-08 14:42 39.31598 14.29689 33965 ft 413 kts 248°
2026-05-08 14:42 39.28999 14.23062 33966 ft 413 kts 249°
2026-05-08 14:43 39.26479 14.16417 33964 ft 410 kts 249°
2026-05-08 14:43 39.23986 14.09800 33972 ft 410 kts 249°
2026-05-08 14:44 39.21483 14.03222 33979 ft 411 kts 249°
2026-05-08 14:44 39.18946 13.96607 33983 ft 412 kts 249°
2026-05-08 14:45 39.16398 13.89987 33966 ft 412 kts 248°
2026-05-08 14:45 39.13849 13.83378 33988 ft 412 kts 248°
2026-05-08 14:46 39.11295 13.76761 33998 ft 412 kts 248°
2026-05-08 14:46 39.08752 13.70171 33965 ft 409 kts 248°
2026-05-08 14:47 39.06231 13.63636 33972 ft 409 kts 248°
2026-05-08 14:47 39.03691 13.57094 33972 ft 409 kts 248°
2026-05-08 14:48 39.01143 13.50547 33942 ft 408 kts 248°
2026-05-08 14:48 38.98601 13.44020 33975 ft 408 kts 248°
2026-05-08 14:49 38.96058 13.37503 33992 ft 408 kts 248°
2026-05-08 14:49 38.93529 13.31029 34000 ft 409 kts 248°
2026-05-08 14:50 38.90975 13.24504 34006 ft 409 kts 248°
2026-05-08 14:50 38.88401 13.17981 34001 ft 409 kts 248°
2026-05-08 14:51 38.85812 13.11491 34016 ft 410 kts 244°
2026-05-08 14:51 38.82742 13.05298 33993 ft 411 kts 242°
2026-05-08 14:52 38.78107 12.96070 34007 ft 411 kts 242°
2026-05-08 14:53 38.75006 12.89912 33998 ft 410 kts 242°
2026-05-08 14:53 38.71914 12.83770 33988 ft 410 kts 242°
2026-05-08 14:54 38.68822 12.77642 33990 ft 410 kts 242°
2026-05-08 14:54 38.65730 12.71534 33999 ft 408 kts 242°
2026-05-08 14:55 38.62636 12.65433 33997 ft 409 kts 242°
2026-05-08 14:55 38.59527 12.59315 34002 ft 410 kts 242°
2026-05-08 14:56 38.56433 12.53228 34010 ft 411 kts 242°
2026-05-08 14:56 38.53317 12.47113 34022 ft 411 kts 242°
2026-05-08 14:57 38.50197 12.40994 34028 ft 411 kts 242°
2026-05-08 14:57 38.47073 12.34879 34035 ft 410 kts 241°
2026-05-08 14:58 38.43945 12.28788 34016 ft 410 kts 241°
2026-05-08 14:58 38.40813 12.22690 34024 ft 410 kts 241°
2026-05-08 14:59 38.37683 12.16613 34030 ft 411 kts 241°
2026-05-08 14:59 38.32492 12.07876 34032 ft 415 kts 235°
2026-05-08 15:00 38.28753 12.02267 34047 ft 415 kts 235°
2026-05-08 15:00 38.25013 11.96664 34017 ft 415 kts 235°
2026-05-08 15:01 38.21276 11.91068 34022 ft 415 kts 235°
2026-05-08 15:01 38.17527 11.85468 34028 ft 415 kts 235°
2026-05-08 15:02 38.13817 11.79934 33851 ft 403 kts 235°
2026-05-08 15:02 38.12031 11.77277 33418 ft 397 kts 235°
2026-05-08 15:02 38.10251 11.74631 33045 ft 391 kts 235°
2026-05-08 15:03 38.08500 11.72028 32640 ft 385 kts 235°
2026-05-08 15:03 38.06768 11.69453 32238 ft 379 kts 235°
2026-05-08 15:03 38.05064 11.66919 31852 ft 376 kts 234°
2026-05-08 15:03 38.03367 11.64398 31487 ft 375 kts 234°
2026-05-08 15:04 38.01675 11.61884 31114 ft 374 kts 234°
2026-05-08 15:04 37.99988 11.59380 30751 ft 373 kts 234°
2026-05-08 15:04 37.98306 11.56885 30392 ft 372 kts 234°
2026-05-08 15:04 37.96623 11.54394 30029 ft 371 kts 234°
2026-05-08 15:05 37.94944 11.51917 29610 ft 370 kts 234°
2026-05-08 15:05 37.93308 11.49505 29207 ft 367 kts 234°
2026-05-08 15:05 37.91651 11.47059 28801 ft 365 kts 234°
2026-05-08 15:05 37.90001 11.44624 28404 ft 363 kts 234°
2026-05-08 15:06 37.88362 11.42209 28008 ft 360 kts 234°
2026-05-08 15:06 37.86764 11.39855 27629 ft 358 kts 234°
2026-05-08 15:06 37.85148 11.37473 27235 ft 355 kts 234°
2026-05-08 15:06 37.83542 11.35109 26861 ft 353 kts 234°
2026-05-08 15:07 37.81946 11.32762 26496 ft 351 kts 234°
2026-05-08 15:07 37.80361 11.30432 26136 ft 349 kts 235°
2026-05-08 15:07 37.78781 11.28109 25759 ft 345 kts 235°
2026-05-08 15:07 37.77219 11.25818 25402 ft 342 kts 235°
2026-05-08 15:08 37.75668 11.23548 25048 ft 340 kts 235°
2026-05-08 15:08 37.74646 11.22055 24818 ft 338 kts 235°
2026-05-08 15:08 37.72598 11.19061 24353 ft 335 kts 235°
2026-05-08 15:08 37.71099 11.16866 24017 ft 334 kts 235°
2026-05-08 15:09 37.69587 11.14654 23681 ft 332 kts 235°
2026-05-08 15:09 37.68082 11.12453 23295 ft 330 kts 235°
2026-05-08 15:09 37.66466 11.10413 22884 ft 333 kts 227°
2026-05-08 15:09 37.64709 11.08512 22489 ft 332 kts 227°
2026-05-08 15:10 37.62963 11.06618 22093 ft 330 kts 227°
2026-05-08 15:10 37.61231 11.04735 21715 ft 328 kts 227°
2026-05-08 15:10 37.59511 11.02862 21342 ft 326 kts 227°
2026-05-08 15:10 37.57801 11.01000 20975 ft 324 kts 227°
2026-05-08 15:11 37.56099 10.99152 20598 ft 322 kts 227°
2026-05-08 15:11 37.54406 10.97315 20234 ft 320 kts 227°
2026-05-08 15:11 37.52719 10.95482 19876 ft 319 kts 227°
2026-05-08 15:11 37.51045 10.93667 19520 ft 317 kts 227°
2026-05-08 15:12 37.49378 10.91859 19171 ft 315 kts 226°
2026-05-08 15:12 37.47721 10.90066 18825 ft 313 kts 226°
2026-05-08 15:12 37.46089 10.88302 18486 ft 312 kts 226°
2026-05-08 15:12 37.44448 10.86529 18090 ft 310 kts 226°
2026-05-08 15:13 37.42816 10.84765 17705 ft 309 kts 226°
2026-05-08 15:13 37.41188 10.83004 17322 ft 308 kts 226°
2026-05-08 15:13 37.39568 10.81250 16938 ft 307 kts 226°
2026-05-08 15:13 37.37951 10.79502 16566 ft 306 kts 226°
2026-05-08 15:14 37.36338 10.77760 16196 ft 305 kts 226°
2026-05-08 15:14 37.34728 10.76024 15836 ft 304 kts 226°
2026-05-08 15:14 37.33129 10.74301 15466 ft 303 kts 226°
2026-05-08 15:14 37.31555 10.72606 15092 ft 302 kts 226°
2026-05-08 15:15 37.29973 10.70905 14715 ft 301 kts 226°
2026-05-08 15:15 37.28406 10.69222 14347 ft 301 kts 226°
2026-05-08 15:15 37.26820 10.67521 13976 ft 300 kts 226°
2026-05-08 15:15 37.25238 10.65823 13578 ft 299 kts 226°
2026-05-08 15:16 37.23645 10.64293 13191 ft 302 kts 217°
2026-05-08 15:16 37.21706 10.63212 12770 ft 307 kts 206°
2026-05-08 15:16 37.19696 10.62333 12345 ft 305 kts 206°
2026-05-08 15:16 37.17693 10.61455 11927 ft 304 kts 206°
2026-05-08 15:17 37.15701 10.60582 11509 ft 303 kts 207°
2026-05-08 15:17 37.13720 10.59713 11100 ft 302 kts 207°
2026-05-08 15:17 37.11740 10.58842 10697 ft 300 kts 207°
2026-05-08 15:17 37.09774 10.57976 10299 ft 299 kts 207°
2026-05-08 15:18 37.07815 10.57115 9901 ft 298 kts 207°
2026-05-08 15:18 37.05866 10.56259 9467 ft 297 kts 207°
2026-05-08 15:18 37.03918 10.55401 9019 ft 295 kts 206°
2026-05-08 15:18 37.02027 10.54569 8621 ft 294 kts 206°
2026-05-08 15:19 37.00161 10.53751 8213 ft 292 kts 206°
2026-05-08 15:19 36.98234 10.52911 7818 ft 288 kts 206°
2026-05-08 15:19 36.96377 10.52105 7437 ft 281 kts 206°
2026-05-08 15:19 36.94556 10.51313 7073 ft 274 kts 206°
2026-05-08 15:20 36.92779 10.50538 6717 ft 268 kts 206°
2026-05-08 15:20 36.91040 10.49775 6364 ft 266 kts 206°
2026-05-08 15:20 36.89297 10.49009 5979 ft 265 kts 205°
2026-05-08 15:20 36.87570 10.48255 5604 ft 259 kts 204°
2026-05-08 15:21 36.85952 10.47554 5240 ft 247 kts 204°
2026-05-08 15:21 36.84381 10.46874 4904 ft 231 kts 204°
2026-05-08 15:21 36.82903 10.46231 4550 ft 217 kts 203°
2026-05-08 15:21 36.81535 10.45635 4176 ft 201 kts 203°
2026-05-08 15:22 36.80294 10.45019 3850 ft 189 kts 214°
2026-05-08 15:22 36.79387 10.43928 3496 ft 177 kts 240°
2026-05-08 15:22 36.78968 10.42579 3171 ft 164 kts 263°
2026-05-08 15:22 36.79005 10.41219 2837 ft 151 kts 285°
2026-05-08 15:23 36.79361 10.40027 2531 ft 144 kts 295°
2026-05-08 15:23 36.79736 10.38877 2271 ft 141 kts 295°
2026-05-08 15:23 36.80094 10.37781 2199 ft 142 kts 295°
2026-05-08 15:23 36.80460 10.36673 2060 ft 141 kts 296°
2026-05-08 15:24 36.80835 10.35545 1882 ft 142 kts 297°
2026-05-08 15:24 36.81207 10.34429 1710 ft 140 kts 297°
2026-05-08 15:24 36.81572 10.33337 1530 ft 142 kts 297°
2026-05-08 15:24 36.81823 10.32584 1413 ft 144 kts 297°
2026-05-08 15:25 36.82338 10.31042 1133 ft 143 kts 297°
2026-05-08 15:25 36.82593 10.30276 1002 ft 144 kts 297°
2026-05-08 15:25 36.82975 10.29131 814 ft 143 kts 297°
2026-05-08 15:25 36.83349 10.28008 644 ft 141 kts 297°
2026-05-08 15:26 36.83725 10.26880 459 ft 141 kts 296°
2026-05-08 15:26 36.84100 10.25753 283 ft 140 kts 297°
2026-05-08 15:26 36.84472 10.24631 87 ft 140 kts 297°
2026-05-08 15:26 36.84823 10.23597 21 ft 110 kts 293°
2026-05-08 15:27 36.85067 10.22857 26 ft 76 kts 293°
2026-05-08 15:27 36.85235 10.22348 27 ft 52 kts 292°
2026-05-08 15:27 36.85346 10.22014 27 ft 33 kts 293°
2026-05-08 15:27 36.85400 10.21796 29 ft 18 kts 260°
2026-05-08 15:28 36.85323 10.21731 29 ft 13 kts 202°
2026-05-08 15:28 36.85317 10.21728 29 ft 0 kts 202°
2026-05-08 15:29 36.85308 10.21723 29 ft 4 kts 202°
2026-05-08 15:30 36.85259 10.21709 29 ft 11 kts 179°
2026-05-08 15:30 36.85189 10.21781 28 ft 17 kts 129°
2026-05-08 15:30 36.85158 10.21908 27 ft 17 kts 113°
2026-05-08 15:30 36.85104 10.22071 27 ft 24 kts 110°
2026-05-08 15:31 36.85036 10.22277 27 ft 26 kts 112°
2026-05-08 15:31 36.84960 10.22379 25 ft 12 kts 184°
2026-05-08 15:31 36.84876 10.22333 24 ft 14 kts 248°
2026-05-08 15:31 36.84885 10.22198 24 ft 17 kts 275°
2026-05-08 15:32 36.84876 10.22052 26 ft 17 kts 238°
2026-05-08 15:32 36.84777 10.22011 24 ft 15 kts 191°
2026-05-08 15:32 36.84706 10.22067 25 ft 14 kts 115°
2026-05-08 15:32 36.84673 10.22082 23 ft 5 kts 223°
2026-05-08 15:33 36.84655 10.22039 23 ft 2 kts 246°
2026-05-08 15:33 36.84647 10.22017 23 ft 3 kts 247°
2026-05-08 15:33 36.84643 10.22004 23 ft 0 kts 247°